This demonstration page uses our WeatherBlox Daily Observations layout. Learn more.

41.55636, -103.73856

Hourly Observations for January 25, 2020

Temp ( °F °C ) Dew Point ( °F °C ) Humidity (%) Winds ( mph kmh ) Pressure ( in mb ) Visibility ( mi km ) Precip ( " mm )
12:58 am 00:58 Mostly Cloudy 39 4 24 -4.6 54 54 W 7 11 29.99 1016 10 16.0934 0 0
1:58 am 01:58 Mostly Cloudy 36 2.3 24 -4.4 62 62 W 5 7 30 1016 10 16.0934 0 0
2:58 am 02:58 Partly Cloudy 36 2.2 24 -4.3 63 63 Calm 30.01 1016 10 16.0934 0 0
3:58 am 03:58 Mostly Clear 35 1.7 24 -4.6 63 63 SW 3 6 30.01 1016 10 16.0934 0 0
4:58 am 04:58 Mostly Cloudy 35 1.8 24 -4.5 63 63 NNW 7 11 29.98 1015 10 16.0934 0 0
5:58 am 05:58 Mostly Cloudy 35 1.6 24 -4.3 65 65 W 6 9 30.05 1018 10 16.0934 0 0
6:58 am 06:58 Mostly Cloudy 33 0.7 25 -4 71 71 W 8 13 29.96 1015 10 16.0934 0 0
7:58 am 07:58 Partly Cloudy 32 0.2 25 -4.1 73 73 W 5 7 29.96 1015 10 16.0934 0 0
8:58 am 08:58 Mostly Cloudy 31 -0.7 25 -3.8 80 80 WSW 7 11 29.95 1014 10 16.0934 0 0
9:58 am 09:58 Mostly Cloudy 34 1 26 -3.5 72 72 WSW 5 7 29.94 1014 10 16.0934 0 0
10:58 am 10:58 Mostly Cloudy 33 0.3 27 -2.9 79 79 WSW 5 7 29.95 1014 10 16.0934 0 0
11:58 am 11:58 Mostly Clear 29 -1.9 25 -3.8 87 87 WSW 7 11 30 1016 10 16.0934 0 0
12:58 pm 12:58 Clear 30 -1.3 26 -3.6 85 85 WSW 6 9 30.02 1017 10 16.0934 0 0
1:58 pm 13:58 Clear 31 -0.4 26 -3.1 82 82 W 5 7 30.04 1017 10 16.0934 0 0
2:58 pm 14:58 Partly Cloudy 31 -0.8 26 -3.4 83 83 WSW 5 7 30.05 1018 10 16.0934 0 0
3:58 pm 15:58 Mostly Cloudy 37 2.7 29 -1.4 75 75 NW 14 22 30.06 1018 10 16.0934 0 0
4:58 pm 16:58 Mostly Cloudy 40 4.7 29 -1.8 63 63 WNW 15 24 30.07 1018 10 16.0934 0 0
5:59 pm 17:59 Sunny 46 8 26 -3.2 45 45 NW 21 33 30.04 1017 10 16.0934 0 0
6:58 pm 18:58 Partly Cloudy 48 8.7 25 -4 41 41 NW 17 28 30.02 1017 10 16.0934 0 0
7:58 pm 19:58 Sunny 49 9.5 23 -4.8 36 36 WNW 17 28 29.99 1016 10 16.0934 0 0
8:58 pm 20:58 Mostly Sunny 49 9.5 21 -6.3 33 33 WNW 24 39 29.99 1016 10 16.0934 0 0
9:58 pm 21:58 Sunny 47 8.2 19 -7.5 32 32 WNW 22 35 30.01 1016 10 16.0934 0 0
10:58 pm 22:58 Sunny 46 7.9 18 -7.8 32 32 NW 22 35 30.01 1016 10 16.0934 0 0
11:58 pm 23:58 Sunny 42 5.4 18 -7.6 39 39 WNW 14 22 30.04 1017 10 16.0934 0 0

Powered by AerisWeather